Regional Weather Roundup
Issued by NWS Sioux Falls, SD

Home | Current Version | Previous Version | Graphics & Text | Print | Product List | Glossary On
Versions: 1 2 3 4 5 6 7 8 9 10 11 12 13 14 15 16 17 18 19 20 21 22 23 24 25 26 27 28 29 30 31 32 33 34 35 36 37 38 39 40 41 42 43 44 45 46 47 48 49 50
000
ASUS43 KFSD 231802
RWRFSD

WEATHER ROUNDUP FOR SE SOUTH DAKOTA/SW MINNESOTA/NW IOWA
NATIONAL WEATHER SERVICE SIOUX FALLS SD
100 PM CDT FRI JUN 23 2017

NOTE: "FAIR" INDICATES FEW OR NO CLOUDS BELOW 12,000 FEET WITH NO
SIGNIFICANT WEATHER AND OR OBSTRUCTIONS TO VISIBILITY.


SDZ038>040-050-052>070-231900-
SOUTHEAST SOUTH DAKOTA

CITY           SKY/WX    TMP DP  RH WIND       PRES   REMARKS
BROOKINGS      CLOUDY    61  49  64 NW15G23   29.99S
CHAMBERLAIN    PTSUNNY   67  45  45 NW18G26   30.07F
6HR MIN TEMP:  58; 6HR MAX TEMP:  68;

HURON          CLOUDY    65  46  50 NW26G37   30.02S
6HR MIN TEMP:  57; 6HR MAX TEMP:  66;

MADISON        CLOUDY    61  50  67 NW23G30   30.00S
MITCHELL       CLOUDY    68  46  45 NW16G31   30.03S
6HR MIN TEMP:  59; 6HR MAX TEMP:  68;

SIOUX FALLS    CLOUDY    63  53  70 NW16G22   29.99F
6HR MIN TEMP:  57; 6HR MAX TEMP:  64;

YANKTON        PTSUNNY   67  49  52 NW25G31   30.03S
$$

MNZ071-072-080-081-089-090-097-098-231900-
SOUTHWEST MINNESOTA

CITY           SKY/WX    TMP DP  RH WIND       PRES   REMARKS
JACKSON        CLOUDY    63  52  67 W18G24    29.93F
LUVERNE        CLOUDY    64  46  52 NW18G26   29.98F
MARSHALL       CLOUDY    64  53  67 NW24      29.93S
MONTEVIDEO     CLOUDY    64  54  68 N18G26    29.92R
PIPESTONE      CLOUDY    63  48  59 NW17G28   29.97F
REDWOOD FALLS  CLOUDY    65  51  60 NW14G30   29.89S
TRACY          CLOUDY    63  54  71 NW20G25   29.95R
WINDOM         CLOUDY    64  52  63 NW18G30   29.92F
WORTHINGTON    CLOUDY    61  53  75 NW23      29.97F
$$

IAZ001>003-012>014-020>022-031-032-NEZ013-014-SDZ071-231900-
NORTHWEST IOWA

CITY           SKY/WX    TMP DP  RH WIND       PRES   REMARKS
CHEROKEE       PTSUNNY   65  52  63 NW20G28   29.98R
DENISON        CLOUDY    68  52  56 NW21G28   29.99F
ESTHERVILLE    CLOUDY    64  54  69 NW21G29   29.92S
LE MARS        CLOUDY    66  50  55 NW21      30.01S
ORANGE CITY    CLOUDY    64  52  63 NW18G26   29.99S
SHELDON        CLOUDY    63  50  63 NW18G29   29.97R
SIOUX CITY     CLOUDY    70  52  52 N24G35    29.99F
SPENCER        CLOUDY    66  52  60 NW17G29   29.94F
6HR MIN TEMP:  58; 6HR MAX TEMP:  68;

STORM LAKE     CLOUDY    66  52  59 NW22G29   29.96F
$$

ABBREVIATIONS USED IN REMARKS
   TC - TEMPERATURE IN CELSIUS
  WCI - WIND CHILL INDEX
   HX - HEAT INDEX
  VSB - VISIBILITY




USA.gov is the U.S. government's official web portal to all federal, state and local government web resources and services.